Location: Shenandoah County Park
(38.9356°N, 78.4524°W)
Time: 19:30:24
(UTC-04:00)

Explorer 11/Cluster Stage 4 - Pass Details

Date: 24 February 2024
Orbit: 465 x 1219 km, 28.8° (Epoch: 22 April)

Event Time Altitude Azimuth Distance (km) Brightness Sun altitude
Rises 05:00:06 0° 261° (W) 3,897 - -22.9°
Reaches altitude 10° 05:03:28 10° 250° (WSW) 2,823 - -22.2°
Exits shadow 05:07:42 25° 216° (SW) 1,784 8.0 -21.4°
Maximum altitude 05:09:05 27° 195° (SSW) 1,653 8.0 -21.1°
Drops below altitude 10° 05:13:51 10° 138° (SE) 2,363 9.5 -20.2°
Sets 05:16:26 0° 126° (SE) 3,160 10.5 -19.7°
